Showing default

FLOCK 4G 18, 62680

Orbit data source: Space-Track

FLOCK 4G 18, 62680 is a payload satellite owned by Planet (US) in SSO that was launched on Tue, 14 Jan 2025 UTC via an FALCON 9 launch vehicle from the Air Force Western Test Range (AFWTR). Payload-class satellites include a variety of spacecraft equipped with specific instruments for various scientific and technological missions. These include communications satellites like Starlink; space stations such as the ISS; scientific satellites like the Hubble; Earth observation satellites from companies like Planet Labs, Umbra, and HawkEye 360; GPS; miniature CubeSats for education and research; and military/defense satellites.

Loading next visibility...
Identifier
62680, 2025-009BZ
Orbit
SSO
Country
Flag of USUS
Related business
Manufacturer
Planet
Mission
Operational Commercial Imaging
Bus & Motor
CUBESAT 3U, Unknown motor
Mass
5.7 kg wet, 5.7 kg dry
Launch date (UTC)
2025-01-14 (1 year ago)
Launch vehicle
FALCON 9
Launch site
Air Force Western Test Range (AFWTR)
Object type
Payload
Rocket body
Debris
Shape & HBR
Box + 2 Pan, 1.0 m
Radar Cross Section
0.072 m², Medium (>0.1 m² and < 1m²)

Expand to show TLE details & history
Last TLE update: 9 hours ago

TLE from 9 hours ago
0 FLOCK 4G 18
1 62680U 25009BZ  26104.15045567  .00004979  00000-0  18421-3 0  9992
2 62680  97.4024 186.2137 0005475 180.5496 179.5739 15.28134121126752
Epoch: 2026-04-14T03:36Z
TLE epoch observation values (Epoch: 2026-04-14T03:36:39.369Z)
Latitude
Longitude
-70.28117°
Altitude
488.248 km
Speed
7.619 km/s
True Right ascension
12h 24m 51s
True Declination
0° 00' 00"
Sunlit
Object was in full shadow at epoch
Visualization orbit readout
Latitude
Unknown
Longitude
Unknown
Altitude
Unknown
Speed
Unknown
Apparent Right ascension
Unknown
Apparent Declination
Unknown
Sunlit
N/A
Visualization observer readout
Local Sidereal Time
19:14:30
Azimuth
Unknown
Elevation
Unknown
Doppler factor
Unknown
Orbital elements
Apogee altitude
482.099 km
Perigee altitude
474.591 km
Semi-major axis
6,856.482 km
Eccentricity
0.00055
Inclination
97.4024°
RAAN
186.2137°
Arg. of periapsis
180.5496°
True anomaly
179.57437°
Mean anomaly
179.5739°
Eccentric anomaly
179.57413°
Mean motion
3.82288 °/min
Orbital period
94.17 mins
BSTAR
0.00018421
Loading maneuver chart data...
Computing Atmospheric mass density...
Loading historical data...
Loading historical data...
Loading historical data...
Loading historical data...
Loading historical data...
Loading historical data...
Loading historical data...

Documentation

Showing up to 5 results
|